Location: Ravensburg
(47.7866°N, 9.6124°E)
Time: 02:38:18
(UTC+02:00)

Gurwin Techsat 1B - Pass Details

Date: 17 March 2026
Orbit: 809 x 812 km, 99.0° (Epoch: 14 April)

Event Time Altitude Azimuth Distance (km) Brightness Sun altitude
Rises 04:17:23 0° 28° (NNE) 3,340 12.6 -22.6°
Reaches altitude 10° 04:20:28 10° 46° (NE) 2,403 12.1 -22.2°
Maximum altitude 04:24:08 19° 90° (E) 1,862 11.3 -21.6°
Drops below altitude 10° 04:27:46 10° 134° (SE) 2,390 11.3 -21.1°
Sets 04:30:48 0° 153° (SSE) 3,315 11.9 -20.6°
